Location: Kumla
(59.1265°N, 15.1401°E)
Time: 21:34:22
(UTC+01:00)

Vanguard 1 - Pass Details

Date: 05 December 2023
Orbit: 653 x 3825 km, 34.3° (Epoch: 04 March)

Event Time Altitude Azimuth Distance (km) Brightness Sun altitude
Rises 15:39:46 0° 174° (S) 5,761 14.5 -4.1°
Reaches altitude 10° 15:46:58 10° 149° (SSE) 5,494 14.0 -4.8°
Maximum altitude 15:52:48 13° 128° (SE) 5,760 13.8 -5.4°
Drops below altitude 10° 15:59:26 10° 109° (ESE) 6,435 13.9 -6.1°
Sets 16:09:57 0° 87° (E) 7,890 14.1 -7.3°
